[Iaude] MPEC E41: 2024 EY [a=1.75,e=0.34,i=30.4,H=22.9]

mpec at cfa.harvard.edu mpec at cfa.harvard.edu
Mon Mar 4 09:12:56 EST 2024


M.P.E.C. 2024-E41                                 Issued 2024 March 4, 14:11 UT

     The Minor Planet Electronic Circulars contain information on unusual
         minor planets, routine data on comets and natural satellites,
         and occasional editorial announcements.  They are published
    on behalf of Division F of the International Astronomical Union by the
          Minor Planet Center, Smithsonian Astrophysical Observatory,
                          Cambridge, MA 02138, U.S.A.
			  
             Prepared using the Tamkin Foundation Computer Network

                              MPC at CFA.HARVARD.EDU
            URL https://www.minorplanetcenter.net/    ISSN 1523-6714

                                    2024 EY                                     


Observations:
     K24E00Y* C2024 03 02.48125610 58 40.744+43 28 26.08         20.57wXEE041F52
     K24E00Y  C2024 03 02.49443210 58 34.536+43 26 52.87         20.81wXEE041F52
     K24E00Y  C2024 03 02.50761110 58 28.327+43 25 19.19         20.78wXEE041F52
     K24E00Y  C2024 03 02.60275010 57 43.975+43 13 56.67         20.70GVEE041F52
     K24E00Y KC2024 03 03.03915310 54 32.232+42 21 30.71         20.7 GVEE041J95
     K24E00Y KC2024 03 03.05428310 54 25.291+42 19 39.90         21.0 GVEE041J95
     K24E00Y KB2024 03 03.95118010 47 54.68 +40 27 53.3                XEE041I93
     K24E00Y KB2024 03 03.95850310 47 51.40 +40 26 56.5          20.5 GXEE041I93
     K24E00Y KB2024 03 03.96563410 47 48.22 +40 26 02.1          20.0 GXEE041I93
     K24E00Y KC2024 03 04.19094510 46 11.75 +39 57 02.8          21.7 GVEE041H21
     K24E00Y KC2024 03 04.19374410 46 10.51 +39 56 40.9          21.8 GVEE041H21
     K24E00Y KC2024 03 04.19654210 46 09.26 +39 56 19.4          21.7 GVEE041H21

Observer details:
F52 Pan-STARRS 2, Haleakala.  Observers J. Herman, T. Lowe, P. Minguez, A.
    Schultz, I. Smith.  Measurers K. Chambers, T. de Boer, J. Fairlamb, H.
    Gao, M. Huber, C.-C. Lin, E. Magnier, Y. Ramanjooloo, R. Wainscoat, R.
    Weryk.  1.8-m Ritchey-Chretien + CCD.
H21 Astronomical Research Observatory, Westfield.  Observer R. Holmes.
    Measurers T. Linder, R. Holmes, L. Horn.  0.76-m f/3.0 astrograph + CCD.
I93 St Pardon de Conques.  Observer F. Losse.  0.40-m f/3.7 reflector + CCD.
J95 Great Shefford.  Observer P. Birtwhistle.  0.41-m f/6.3 Schmidt-Cassegrain
    + CCD.

Orbital elements:
2024 EY                                                  Earth MOID = 0.1712 AU
Epoch 2024 Mar. 31.0 TT = JDT 2460400.5                 MPC                     
M  10.94424              (2000.0)            P               Q                  
n   0.42566997     Peri.  171.46391     -0.94904790     -0.30135685             
a   1.7501988      Node   349.50348     +0.25093461     -0.54578363             
e   0.3365695      Incl.   30.38748     +0.19063026     -0.78185950             
P   2.32           H   22.97          G   0.15           U   9                  
Residuals in seconds of arc
240302 F52  0.2-  0.0     240303 J95  0.2+  0.0     240303 I93  0.0   0.6+
240302 F52  0.1-  0.1+    240303 J95  0.0   0.2-    240304 H21  0.1-  0.1+
240302 F52  0.0   0.0     240303 I93  0.3-  1.3+    240304 H21  0.0   0.2-
240302 F52  0.1+  0.1+    240303 I93  0.2-  0.5+    240304 H21  0.0   0.0

Ephemeris:
2024 EY                  a,e,i = 1.75, 0.34, 30                  q = 1.1611
Date    TT    R. A. (2000) Decl.     Delta      r    Elong.  Phase     V
2024 02 03    13 55 16.2 +62 59 00   0.3977  1.1962   112.6    49.5    23.2
...
2024 02 18    12 43 07.0 +59 15 06   0.2834  1.1708   124.1    44.3    22.3
...
2024 02 26    11 41 43.8 +52 16 36   0.2308  1.1637   134.6    37.3    21.6
...
2024 03 03    10 54 50.3 +42 26 28   0.2017  1.1613   144.4    29.8    21.1
2024 03 04    10 47 33.1 +40 21 47   0.1982  1.1612   146.0    28.5    21.0
2024 03 05    10 40 29.2 +38 10 03   0.1951  1.1611   147.5    27.3    21.0
...
2024 03 11    10 03 31.7 +23 10 17   0.1871  1.1623   152.3    23.4    20.8
...
2024 03 19    09 29 27.2 +02 58 49   0.2062  1.1680   143.6    30.4    21.2
...
2024 04 03    09 00 50.6 -20 42 09   0.3032  1.1908   122.6    45.0    22.5

A. U. Tomatic                (C) Copyright 2024 MPC           M.P.E.C. 2024-E41





More information about the Iaude mailing list